AFL1132 UUEE-URSS

Flight info

Callsign AFL1132
Flight time 2h 5m
Altitude 37000
Route EMGAS3J EMGAS T828 EKTUT N72 UMSIS N166 OGURA G247 SM/K0835F290 B950 AG AG1K
Aircraft A320/M-SDE3FGHIRWY/LB1

Departure

Time 2026-05-07 06:38
Airport Sheremetyevo International Airport (UUEE)

Arrival

Time 2026-05-07 08:43
Airport Sochi International Airport (URSS)
Time Latitude Longitude Altitude Speed Heading
2026-05-07 06:11 55.97808 37.41886 639 ft 0 kts 304°
2026-05-07 06:28 55.97795 37.41916 641 ft 4 kts 313°
2026-05-07 06:29 55.97775 37.41947 640 ft 4 kts 334°
2026-05-07 06:29 55.97759 37.41958 639 ft 4 kts
2026-05-07 06:29 55.97739 37.41945 642 ft 3 kts 71°
2026-05-07 06:29 55.97738 37.41940 642 ft 0 kts 75°
2026-05-07 06:32 55.97745 37.41992 639 ft 10 kts 76°
2026-05-07 06:33 55.97720 37.42140 641 ft 15 kts 142°
2026-05-07 06:33 55.97704 37.42309 639 ft 15 kts 73°
2026-05-07 06:33 55.97731 37.42499 641 ft 18 kts 75°
2026-05-07 06:33 55.97766 37.42731 645 ft 21 kts 75°
2026-05-07 06:34 55.97805 37.42988 639 ft 22 kts 75°
2026-05-07 06:34 55.97845 37.43265 640 ft 24 kts 74°
2026-05-07 06:34 55.97890 37.43559 639 ft 25 kts 75°
2026-05-07 06:34 55.97932 37.43841 639 ft 19 kts 72°
2026-05-07 06:35 55.97936 37.44013 639 ft 12 kts 128°
2026-05-07 06:35 55.97913 37.44038 639 ft 0 kts 160°
2026-05-07 06:35 55.97910 37.44040 639 ft 4 kts 161°
2026-05-07 06:35 55.97841 37.44074 640 ft 13 kts 165°
2026-05-07 06:36 55.97739 37.44121 638 ft 17 kts 165°
2026-05-07 06:36 55.97649 37.44163 643 ft 12 kts 165°
2026-05-07 06:36 55.97557 37.44179 640 ft 14 kts 206°
2026-05-07 06:36 55.97534 37.44110 642 ft 0 kts 254°
2026-05-07 06:37 55.97534 37.44108 642 ft 0 kts 255°
2026-05-07 06:37 55.97529 37.44073 642 ft 13 kts 255°
2026-05-07 06:37 55.97431 37.43435 646 ft 90 kts 255°
2026-05-07 06:38 55.97215 37.41985 647 ft 149 kts 255°
2026-05-07 06:38 55.96923 37.39990 934 ft 172 kts 256°
2026-05-07 06:38 55.96597 37.37932 1641 ft 170 kts 247°
2026-05-07 06:38 55.96035 37.36074 2492 ft 168 kts 239°
2026-05-07 06:39 55.95379 37.34286 3074 ft 184 kts 240°
2026-05-07 06:39 55.94623 37.32270 3521 ft 208 kts 240°
2026-05-07 06:39 55.93789 37.30089 4375 ft 213 kts 236°
2026-05-07 06:39 55.92936 37.27918 5396 ft 215 kts 236°
2026-05-07 06:40 55.92072 37.25713 6309 ft 218 kts 237°
2026-05-07 06:40 55.91194 37.23450 6838 ft 225 kts 237°
2026-05-07 06:40 55.90311 37.21142 6969 ft 225 kts 237°
2026-05-07 06:40 55.89438 37.18840 7002 ft 224 kts 238°
2026-05-07 06:41 55.88691 37.16380 7010 ft 237 kts 247°
2026-05-07 06:41 55.88013 37.13570 7004 ft 252 kts 247°
2026-05-07 06:41 55.87312 37.10677 7002 ft 255 kts 247°
2026-05-07 06:41 55.86676 37.07727 7001 ft 255 kts 256°
2026-05-07 06:42 55.86577 37.04577 7047 ft 261 kts 276°
2026-05-07 06:42 55.87053 37.01429 7729 ft 268 kts 284°
2026-05-07 06:42 55.87587 36.98245 7944 ft 265 kts 283°
2026-05-07 06:42 55.88100 36.95104 7995 ft 264 kts 283°
2026-05-07 06:43 55.88514 36.91925 8180 ft 265 kts 270°
2026-05-07 06:43 55.88272 36.88703 9152 ft 264 kts 250°
2026-05-07 06:43 55.87313 36.85911 10048 ft 270 kts 226°
2026-05-07 06:43 55.85712 36.84120 10874 ft 279 kts 201°
2026-05-07 06:44 55.83699 36.83774 11337 ft 309 kts 174°
2026-05-07 06:44 55.81620 36.85117 12008 ft 323 kts 161°
2026-05-07 06:44 55.79580 36.86730 12829 ft 327 kts 160°
2026-05-07 06:44 55.77492 36.88392 13649 ft 330 kts 161°
2026-05-07 06:45 55.75381 36.90068 14348 ft 334 kts 161°
2026-05-07 06:45 55.73244 36.91755 15032 ft 338 kts 161°
2026-05-07 06:45 55.71072 36.93456 15714 ft 342 kts 161°
2026-05-07 06:45 55.68876 36.95163 16393 ft 347 kts 161°
2026-05-07 06:46 55.66651 36.96883 17064 ft 351 kts 161°
2026-05-07 06:46 55.64398 36.98622 17733 ft 355 kts 161°
2026-05-07 06:46 55.62114 37.00382 18368 ft 359 kts 161°
2026-05-07 06:46 55.59808 37.02164 18955 ft 363 kts 161°
2026-05-07 06:47 55.57513 37.03937 19537 ft 366 kts 161°
2026-05-07 06:47 55.55141 37.05767 20132 ft 369 kts 161°
2026-05-07 06:47 55.52775 37.07595 20724 ft 373 kts 161°
2026-05-07 06:47 55.50419 37.09412 21311 ft 376 kts 160°
2026-05-07 06:48 55.48016 37.11261 21887 ft 379 kts 160°
2026-05-07 06:48 55.45590 37.13124 22462 ft 382 kts 160°
2026-05-07 06:48 55.43171 37.15119 23039 ft 387 kts 154°
2026-05-07 06:48 55.40810 37.17470 23590 ft 391 kts 154°
2026-05-07 06:49 55.38434 37.19840 24083 ft 394 kts 154°
2026-05-07 06:49 55.36039 37.22227 24580 ft 396 kts 154°
2026-05-07 06:49 55.33636 37.24618 25093 ft 398 kts 154°
2026-05-07 06:49 55.31220 37.27018 25591 ft 401 kts 154°
2026-05-07 06:50 55.28781 37.29438 26074 ft 403 kts 154°
2026-05-07 06:50 55.26331 37.31866 26554 ft 405 kts 154°
2026-05-07 06:50 55.23862 37.34302 27020 ft 408 kts 154°
2026-05-07 06:50 55.21409 37.36717 27473 ft 410 kts 154°
2026-05-07 06:51 55.18917 37.39188 27924 ft 412 kts 154°
2026-05-07 06:51 55.16422 37.41691 28376 ft 415 kts 153°
2026-05-07 06:51 55.13923 37.44217 28784 ft 417 kts 153°
2026-05-07 06:51 55.11393 37.46780 29198 ft 419 kts 153°
2026-05-07 06:52 55.08855 37.49345 29611 ft 421 kts 153°
2026-05-07 06:52 55.06342 37.51873 29999 ft 423 kts 153°
2026-05-07 06:52 55.03728 37.54401 30341 ft 425 kts 155°
2026-05-07 06:52 55.01123 37.56696 30669 ft 426 kts 157°
2026-05-07 06:53 54.98436 37.58910 31000 ft 427 kts 158°
2026-05-07 06:53 54.95721 37.61075 31326 ft 429 kts 159°
2026-05-07 06:53 54.92998 37.63222 31638 ft 430 kts 159°
2026-05-07 06:53 54.90232 37.65277 31952 ft 432 kts 160°
2026-05-07 06:54 54.87444 37.67235 32260 ft 433 kts 161°
2026-05-07 06:54 54.84635 37.69156 32555 ft 435 kts 161°
2026-05-07 06:54 54.81814 37.71079 32852 ft 437 kts 161°
2026-05-07 06:54 54.78977 37.73033 33131 ft 438 kts 161°
2026-05-07 06:55 54.76159 37.75000 33406 ft 440 kts 160°
2026-05-07 06:55 54.73335 37.76986 33673 ft 441 kts 160°
2026-05-07 06:55 54.70486 37.79001 33921 ft 443 kts 160°
2026-05-07 06:55 54.67614 37.80961 34131 ft 443 kts 164°
2026-05-07 06:56 54.64637 37.82304 34322 ft 442 kts 172°
2026-05-07 06:56 54.61596 37.82865 34568 ft 439 kts 180°
2026-05-07 06:56 54.58540 37.83037 34814 ft 439 kts 180°
2026-05-07 06:56 54.55487 37.83222 35052 ft 439 kts 180°
2026-05-07 06:57 54.52433 37.83416 35286 ft 439 kts 180°
2026-05-07 06:57 54.49382 37.83669 35509 ft 440 kts 176°
2026-05-07 06:57 54.46346 37.84562 35718 ft 443 kts 167°
2026-05-07 06:57 54.43421 37.86253 35908 ft 446 kts 159°
2026-05-07 06:58 54.40645 37.88669 36107 ft 448 kts 153°
2026-05-07 06:58 54.37943 37.91223 36302 ft 448 kts 153°
2026-05-07 06:58 54.35213 37.93784 36498 ft 448 kts 153°
2026-05-07 06:58 54.32466 37.96352 36694 ft 449 kts 153°
2026-05-07 06:59 54.29725 37.98913 36885 ft 449 kts 153°
2026-05-07 06:59 54.26974 38.01476 36956 ft 450 kts 154°
2026-05-07 06:59 54.21474 38.06581 36954 ft 450 kts 154°
2026-05-07 07:00 54.15994 38.11649 36961 ft 450 kts 154°
2026-05-07 07:00 54.10489 38.16733 36964 ft 450 kts 153°
2026-05-07 07:01 54.04970 38.21815 36965 ft 450 kts 153°
2026-05-07 07:01 53.99453 38.26876 36965 ft 450 kts 154°
2026-05-07 07:02 53.93925 38.31927 36964 ft 451 kts 153°
2026-05-07 07:02 53.88402 38.36964 36965 ft 451 kts 153°
2026-05-07 07:03 53.82874 38.41996 36975 ft 451 kts 153°
2026-05-07 07:03 53.77345 38.47020 36985 ft 451 kts 154°
2026-05-07 07:04 53.71532 38.50609 36980 ft 446 kts 171°
2026-05-07 07:04 53.65426 38.52567 36984 ft 447 kts 171°
2026-05-07 07:05 53.59322 38.54594 36986 ft 447 kts 170°
2026-05-07 07:05 53.53210 38.56614 36985 ft 447 kts 171°
2026-05-07 07:06 53.47104 38.58628 36989 ft 447 kts 170°
2026-05-07 07:06 53.40985 38.60633 36991 ft 448 kts 171°
2026-05-07 07:07 53.34898 38.62603 36993 ft 448 kts 171°
2026-05-07 07:07 53.28776 38.64580 36990 ft 448 kts 171°
2026-05-07 07:08 53.22648 38.66558 36998 ft 448 kts 171°
2026-05-07 07:08 53.16526 38.68545 36998 ft 448 kts 170°
2026-05-07 07:09 53.10435 38.70519 36999 ft 448 kts 170°
2026-05-07 07:09 53.04298 38.72480 36999 ft 449 kts 170°
2026-05-07 07:10 52.98163 38.74439 36997 ft 449 kts 170°
2026-05-07 07:10 52.92020 38.76398 37003 ft 449 kts 170°
2026-05-07 07:11 52.85924 38.78331 37004 ft 449 kts 170°
2026-05-07 07:11 52.79789 38.80282 37009 ft 449 kts 170°
2026-05-07 07:12 52.73644 38.82226 37011 ft 449 kts 170°
2026-05-07 07:12 52.67503 38.84165 37010 ft 449 kts 170°
2026-05-07 07:13 52.61353 38.86101 37018 ft 450 kts 170°
2026-05-07 07:13 52.55204 38.88037 37015 ft 450 kts 170°
2026-05-07 07:14 52.49057 38.89951 37015 ft 450 kts 170°
2026-05-07 07:14 52.42936 38.91862 37014 ft 450 kts 169°
2026-05-07 07:15 52.37041 38.95268 37010 ft 452 kts 152°
2026-05-07 07:15 52.31749 39.00839 37014 ft 452 kts 147°
2026-05-07 07:16 52.26503 39.06458 37008 ft 453 kts 147°
2026-05-07 07:16 52.21229 39.12088 37010 ft 453 kts 148°
2026-05-07 07:17 52.15958 39.17699 37011 ft 453 kts 147°
2026-05-07 07:17 52.10677 39.23309 37006 ft 453 kts 147°
2026-05-07 07:18 52.06290 39.27961 37022 ft 453 kts 147°
2026-05-07 07:18 52.01006 39.33552 37020 ft 453 kts 147°
2026-05-07 07:19 51.95712 39.39128 37021 ft 453 kts 147°
2026-05-07 07:19 51.90428 39.44682 37021 ft 453 kts 147°
2026-05-07 07:20 51.85140 39.50222 37026 ft 453 kts 147°
2026-05-07 07:20 51.79879 39.55726 37025 ft 453 kts 147°
2026-05-07 07:21 51.74566 39.61223 37017 ft 453 kts 150°
2026-05-07 07:21 51.68770 39.65113 37016 ft 451 kts 162°
2026-05-07 07:22 51.62812 39.68338 37005 ft 452 kts 162°
2026-05-07 07:22 51.56850 39.71552 37010 ft 452 kts 162°
2026-05-07 07:23 51.50895 39.74767 37006 ft 452 kts 161°
2026-05-07 07:23 51.44967 39.77980 36998 ft 451 kts 161°
2026-05-07 07:24 51.39009 39.81198 37007 ft 452 kts 161°
2026-05-07 07:24 51.33054 39.84395 36998 ft 451 kts 162°
2026-05-07 07:25 51.24103 39.89154 37009 ft 452 kts 161°
2026-05-07 07:26 51.18140 39.92331 37003 ft 452 kts 161°
2026-05-07 07:26 51.12175 39.95505 37008 ft 452 kts 161°
2026-05-07 07:27 51.06205 39.98670 37006 ft 452 kts 161°
2026-05-07 07:27 51.00272 40.01805 37004 ft 452 kts 161°
2026-05-07 07:28 50.94290 40.04954 37009 ft 452 kts 161°
2026-05-07 07:28 50.88307 40.08087 37013 ft 453 kts 161°
2026-05-07 07:29 50.82317 40.11216 37016 ft 453 kts 161°
2026-05-07 07:29 50.76321 40.14345 37018 ft 454 kts 161°
2026-05-07 07:30 50.70314 40.17479 37023 ft 454 kts 161°
2026-05-07 07:30 50.64307 40.20605 37024 ft 454 kts 161°
2026-05-07 07:31 50.58334 40.23700 37021 ft 455 kts 161°
2026-05-07 07:31 50.52312 40.26812 37018 ft 455 kts 161°
2026-05-07 07:32 50.46310 40.29902 37029 ft 456 kts 161°
2026-05-07 07:32 50.40278 40.33007 37020 ft 456 kts 161°
2026-05-07 07:33 50.34250 40.36101 37024 ft 456 kts 161°
2026-05-07 07:33 50.28216 40.39176 37022 ft 456 kts 161°
2026-05-07 07:34 50.22164 40.42254 37029 ft 457 kts 161°
2026-05-07 07:34 50.16114 40.45328 37032 ft 457 kts 161°
2026-05-07 07:35 50.10058 40.48412 37030 ft 457 kts 161°
2026-05-07 07:35 50.04003 40.51482 37038 ft 457 kts 161°
2026-05-07 07:36 49.97981 40.54507 37045 ft 457 kts 161°
2026-05-07 07:36 49.91914 40.57533 37044 ft 457 kts 161°
2026-05-07 07:37 49.85852 40.60559 37043 ft 458 kts 161°
2026-05-07 07:37 49.79788 40.63584 37039 ft 458 kts 161°
2026-05-07 07:38 49.73713 40.66604 37039 ft 458 kts 161°
2026-05-07 07:38 49.67639 40.69615 37043 ft 458 kts 162°
2026-05-07 07:39 49.61362 40.71223 37032 ft 459 kts 179°
2026-05-07 07:39 49.54970 40.71036 37034 ft 460 kts 180°
2026-05-07 07:40 49.48574 40.70841 37032 ft 460 kts 180°
2026-05-07 07:40 49.42170 40.70656 37033 ft 460 kts 180°
2026-05-07 07:41 49.35749 40.70479 37039 ft 461 kts 180°
2026-05-07 07:41 49.29338 40.70312 37041 ft 461 kts 180°
2026-05-07 07:42 49.22941 40.70151 37047 ft 461 kts 180°
2026-05-07 07:42 49.16510 40.69986 37041 ft 462 kts 180°
2026-05-07 07:43 49.10072 40.69816 37046 ft 462 kts 180°
2026-05-07 07:43 49.03642 40.69642 37052 ft 462 kts 180°
2026-05-07 07:44 48.97246 40.69476 37048 ft 462 kts 180°
2026-05-07 07:44 48.90806 40.69037 37050 ft 463 kts 188°
2026-05-07 07:45 48.84474 40.67208 37049 ft 463 kts 190°
2026-05-07 07:45 48.78135 40.65346 37055 ft 464 kts 190°
2026-05-07 07:46 48.71797 40.63491 37056 ft 464 kts 190°
2026-05-07 07:46 48.65446 40.61652 37052 ft 464 kts 190°
2026-05-07 07:47 48.59128 40.59826 37053 ft 464 kts 190°
2026-05-07 07:47 48.52784 40.57996 37056 ft 464 kts 190°
2026-05-07 07:48 48.46433 40.56164 37057 ft 464 kts 190°
2026-05-07 07:48 48.40081 40.54345 37064 ft 464 kts 189°
2026-05-07 07:49 48.33772 40.52559 37061 ft 464 kts 189°
2026-05-07 07:49 48.27410 40.50760 37070 ft 464 kts 189°
2026-05-07 07:50 48.21055 40.48956 37067 ft 464 kts 189°
2026-05-07 07:50 48.14704 40.47161 37067 ft 464 kts 189°
2026-05-07 07:51 48.08393 40.45395 37077 ft 464 kts 189°
2026-05-07 07:51 48.02040 40.43620 37080 ft 464 kts 189°
2026-05-07 07:52 47.95685 40.41840 37083 ft 464 kts 189°
2026-05-07 07:52 47.89366 40.40068 37079 ft 464 kts 189°
2026-05-07 07:53 47.83007 40.38302 37083 ft 464 kts 188°
2026-05-07 07:53 47.76598 40.38037 37084 ft 461 kts 174°
2026-05-07 07:54 47.70200 40.38742 37095 ft 461 kts 174°
2026-05-07 07:54 47.63799 40.39422 37095 ft 461 kts 174°
2026-05-07 07:55 47.57399 40.40094 37106 ft 461 kts 174°
2026-05-07 07:55 47.51001 40.40771 37107 ft 461 kts 174°
2026-05-07 07:56 47.44596 40.41452 37110 ft 461 kts 174°
2026-05-07 07:56 47.38199 40.42125 37117 ft 461 kts 174°
2026-05-07 07:57 47.31840 40.42793 37111 ft 461 kts 174°
2026-05-07 07:57 47.25430 40.43475 37118 ft 461 kts 174°
2026-05-07 07:58 47.19032 40.44151 37124 ft 461 kts 174°
2026-05-07 07:58 47.12623 40.43656 37121 ft 464 kts 191°
2026-05-07 07:59 47.06605 40.40213 37130 ft 466 kts 207°
2026-05-07 07:59 47.00893 40.35680 37131 ft 467 kts 207°
2026-05-07 08:00 46.95204 40.31201 37133 ft 467 kts 207°
2026-05-07 08:00 46.89478 40.26720 37143 ft 467 kts 207°
2026-05-07 08:01 46.83741 40.22241 37145 ft 467 kts 207°
2026-05-07 08:01 46.78012 40.17765 37149 ft 467 kts 207°
2026-05-07 08:02 46.72288 40.13304 37151 ft 466 kts 207°
2026-05-07 08:02 46.66559 40.08842 37155 ft 466 kts 207°
2026-05-07 08:03 46.60828 40.04395 37158 ft 466 kts 207°
2026-05-07 08:03 46.55135 39.99985 37163 ft 466 kts 207°
2026-05-07 08:04 46.49412 39.95568 37170 ft 466 kts 206°
2026-05-07 08:04 46.43681 39.91157 37172 ft 466 kts 206°
2026-05-07 08:05 46.38917 39.87493 37171 ft 465 kts 206°
2026-05-07 08:05 46.33199 39.83108 37176 ft 465 kts 206°
2026-05-07 08:06 46.27479 39.78734 37177 ft 464 kts 206°
2026-05-07 08:06 46.21763 39.74371 37183 ft 464 kts 206°
2026-05-07 08:07 46.16046 39.70017 37184 ft 464 kts 206°
2026-05-07 08:07 46.10341 39.65685 37186 ft 464 kts 206°
2026-05-07 08:08 46.04668 39.61389 37193 ft 464 kts 206°
2026-05-07 08:08 45.98960 39.57074 37194 ft 463 kts 206°
2026-05-07 08:09 45.93243 39.52764 37196 ft 463 kts 206°
2026-05-07 08:09 45.87531 39.48458 37197 ft 463 kts 206°
2026-05-07 08:10 45.81854 39.44194 37198 ft 463 kts 206°
2026-05-07 08:10 45.76138 39.39917 37200 ft 463 kts 206°
2026-05-07 08:11 45.70427 39.35655 37206 ft 463 kts 206°
2026-05-07 08:11 45.64705 39.31418 37205 ft 463 kts 205°
2026-05-07 08:12 45.58831 39.27673 37208 ft 462 kts 201°
2026-05-07 08:12 45.52858 39.24299 37210 ft 462 kts 200°
2026-05-07 08:13 45.46891 39.20896 37209 ft 462 kts 201°
2026-05-07 08:13 45.40951 39.17377 37208 ft 462 kts 201°
2026-05-07 08:14 45.35023 39.13825 37214 ft 462 kts 201°
2026-05-07 08:14 45.29088 39.10299 37219 ft 462 kts 201°
2026-05-07 08:15 45.23147 39.06805 37222 ft 462 kts 201°
2026-05-07 08:15 45.17202 39.03316 37228 ft 463 kts 201°
2026-05-07 08:16 45.11328 38.99872 37227 ft 462 kts 201°
2026-05-07 08:16 45.05371 38.96383 37228 ft 463 kts 201°
2026-05-07 08:17 44.99427 38.92903 37221 ft 463 kts 201°
2026-05-07 08:17 44.93474 38.89425 37220 ft 463 kts 201°
2026-05-07 08:18 44.87519 38.85959 37215 ft 463 kts 201°
2026-05-07 08:18 44.81531 38.82666 37212 ft 461 kts 194°
2026-05-07 08:19 44.75205 38.81601 37192 ft 458 kts 175°
2026-05-07 08:19 44.72046 38.82150 36934 ft 457 kts 166°
2026-05-07 08:19 44.68966 38.83254 36280 ft 458 kts 163°
2026-05-07 08:19 44.65878 38.84413 35379 ft 461 kts 163°
2026-05-07 08:20 44.62773 38.85577 34499 ft 462 kts 162°
2026-05-07 08:20 44.59656 38.86742 33422 ft 465 kts 162°
2026-05-07 08:20 44.56518 38.87913 32334 ft 467 kts 162°
2026-05-07 08:20 44.53376 38.89084 31237 ft 468 kts 162°
2026-05-07 08:21 44.50230 38.90255 30033 ft 470 kts 162°
2026-05-07 08:21 44.47101 38.91417 28688 ft 471 kts 162°
2026-05-07 08:21 44.43932 38.92587 27550 ft 470 kts 162°
2026-05-07 08:21 44.40807 38.93733 26880 ft 460 kts 162°
2026-05-07 08:22 44.37725 38.94865 26048 ft 455 kts 163°
2026-05-07 08:22 44.34678 38.95986 25252 ft 450 kts 163°
2026-05-07 08:22 44.31655 38.97083 24478 ft 447 kts 164°
2026-05-07 08:22 44.28641 38.98099 23689 ft 444 kts 165°
2026-05-07 08:23 44.25640 38.99052 22888 ft 440 kts 166°
2026-05-07 08:23 44.22670 38.99962 22186 ft 434 kts 166°
2026-05-07 08:23 44.19734 39.00856 21504 ft 429 kts 166°
2026-05-07 08:23 44.16832 39.01748 20842 ft 425 kts 166°
2026-05-07 08:24 44.13962 39.02645 20208 ft 420 kts 166°
2026-05-07 08:24 44.11115 39.03504 19856 ft 417 kts 167°
2026-05-07 08:24 44.08268 39.04311 19564 ft 417 kts 167°
2026-05-07 08:24 44.05465 39.05074 19244 ft 415 kts 168°
2026-05-07 08:25 44.02633 39.05830 18920 ft 413 kts 168°
2026-05-07 08:25 43.99818 39.06581 18597 ft 411 kts 168°
2026-05-07 08:25 43.97018 39.07331 18248 ft 409 kts 168°
2026-05-07 08:25 43.94228 39.08086 17923 ft 407 kts 168°
2026-05-07 08:26 43.88690 39.09613 17299 ft 403 kts 168°
2026-05-07 08:26 43.85950 39.10370 16988 ft 401 kts 167°
2026-05-07 08:26 43.83215 39.11122 16667 ft 399 kts 168°
2026-05-07 08:27 43.80491 39.11866 16357 ft 398 kts 168°
2026-05-07 08:27 43.77781 39.12602 16044 ft 396 kts 168°
2026-05-07 08:27 43.75088 39.13335 15735 ft 394 kts 168°
2026-05-07 08:27 43.72397 39.14071 15432 ft 392 kts 168°
2026-05-07 08:28 43.69719 39.14803 15122 ft 391 kts 168°
2026-05-07 08:28 43.67057 39.15530 14791 ft 389 kts 168°
2026-05-07 08:28 43.64405 39.16256 14295 ft 386 kts 168°
2026-05-07 08:28 43.61772 39.16977 14004 ft 385 kts 168°
2026-05-07 08:29 43.59170 39.17569 13681 ft 384 kts 174°
2026-05-07 08:29 43.56509 39.17900 13388 ft 382 kts 174°
2026-05-07 08:29 43.53861 39.18230 13087 ft 378 kts 174°
2026-05-07 08:29 43.51291 39.18550 12933 ft 362 kts 174°
2026-05-07 08:30 43.48832 39.18860 12802 ft 346 kts 174°
2026-05-07 08:30 43.46515 39.19154 12630 ft 321 kts 174°
2026-05-07 08:30 43.44339 39.19432 12123 ft 310 kts 174°
2026-05-07 08:30 43.42208 39.19704 11611 ft 302 kts 174°
2026-05-07 08:31 43.40122 39.19967 11373 ft 302 kts 174°
2026-05-07 08:31 43.38061 39.20226 11129 ft 300 kts 174°
2026-05-07 08:31 43.36002 39.20682 10565 ft 301 kts 160°
2026-05-07 08:31 43.34228 39.22088 10126 ft 290 kts 136°
2026-05-07 08:32 43.32874 39.24158 10062 ft 292 kts 129°
2026-05-07 08:32 43.31559 39.26294 9900 ft 293 kts 129°
2026-05-07 08:32 43.30236 39.28442 9426 ft 294 kts 129°
2026-05-07 08:32 43.28930 39.30566 9022 ft 288 kts 129°
2026-05-07 08:33 43.27639 39.32668 8639 ft 289 kts 129°
2026-05-07 08:33 43.26352 39.34771 8241 ft 286 kts 129°
2026-05-07 08:33 43.25075 39.36854 7850 ft 284 kts 129°
2026-05-07 08:33 43.23808 39.38920 7468 ft 282 kts 129°
2026-05-07 08:34 43.22545 39.40982 7084 ft 281 kts 129°
2026-05-07 08:34 43.21293 39.43027 6700 ft 279 kts 129°
2026-05-07 08:34 43.20213 39.45213 6302 ft 276 kts 114°
2026-05-07 08:34 43.19671 39.47701 5928 ft 272 kts 96°
2026-05-07 08:35 43.19706 39.50262 5661 ft 269 kts 79°
2026-05-07 08:35 43.20216 39.52716 5389 ft 268 kts 71°
2026-05-07 08:35 43.20787 39.55143 5111 ft 267 kts 71°
2026-05-07 08:35 43.21344 39.57536 4830 ft 266 kts 72°
2026-05-07 08:36 43.21902 39.59934 4423 ft 263 kts 72°
2026-05-07 08:36 43.22456 39.62324 3983 ft 261 kts 72°
2026-05-07 08:36 43.23004 39.64691 3552 ft 259 kts 72°
2026-05-07 08:36 43.23546 39.67042 3114 ft 258 kts 72°
2026-05-07 08:37 43.24084 39.69375 2676 ft 256 kts 73°
2026-05-07 08:37 43.24622 39.71696 2221 ft 254 kts 72°
2026-05-07 08:37 43.25154 39.74000 2008 ft 254 kts 73°
2026-05-07 08:37 43.25678 39.76271 2000 ft 241 kts 73°
2026-05-07 08:38 43.26164 39.78377 2005 ft 223 kts 73°
2026-05-07 08:38 43.26634 39.80320 2009 ft 208 kts 66°
2026-05-07 08:38 43.27365 39.81945 2007 ft 195 kts 49°
2026-05-07 08:38 43.28391 39.83108 2033 ft 189 kts 32°
2026-05-07 08:39 43.29470 39.83977 2057 ft 171 kts 30°
2026-05-07 08:39 43.30465 39.84733 2022 ft 155 kts 29°
2026-05-07 08:39 43.31375 39.85417 2011 ft 145 kts 29°
2026-05-07 08:39 43.32225 39.86055 2037 ft 139 kts 29°
2026-05-07 08:40 43.33070 39.86688 2036 ft 138 kts 29°
2026-05-07 08:40 43.33910 39.87317 2017 ft 138 kts 28°
2026-05-07 08:40 43.34752 39.87943 1925 ft 137 kts 28°
2026-05-07 08:40 43.35588 39.88568 1787 ft 137 kts 28°
2026-05-07 08:41 43.36424 39.89197 1571 ft 136 kts 28°
2026-05-07 08:41 43.37261 39.89817 1410 ft 137 kts 27°
2026-05-07 08:41 43.38098 39.90461 1244 ft 138 kts 29°
2026-05-07 08:41 43.38932 39.91118 1082 ft 137 kts 26°
2026-05-07 08:42 43.39780 39.91736 896 ft 137 kts 26°
2026-05-07 08:42 43.40630 39.92348 710 ft 138 kts 26°
2026-05-07 08:42 43.41474 39.92979 529 ft 138 kts 28°
2026-05-07 08:42 43.42302 39.93622 358 ft 138 kts 27°
2026-05-07 08:43 43.43152 39.94239 166 ft 138 kts 29°
2026-05-07 08:43 43.43972 39.94868 77 ft 124 kts 28°
2026-05-07 08:43 43.44503 39.95265 81 ft 50 kts 30°
2026-05-07 08:43 43.44788 39.95482 90 ft 42 kts 30°
2026-05-07 08:44 43.45017 39.95650 91 ft 32 kts 28°
2026-05-07 08:44 43.45177 39.95771 90 ft 23 kts 28°
2026-05-07 08:44 43.45265 39.95836 93 ft 7 kts 26°
2026-05-07 08:44 43.45292 39.95815 95 ft 5 kts 284°
2026-05-07 08:45 43.45265 39.95729 92 ft 13 kts 239°
2026-05-07 08:45 43.45227 39.95640 92 ft 4 kts 239°
2026-05-07 08:45 43.45226 39.95639 92 ft 0 kts 239°
2026-05-07 08:48 43.45220 39.95625 91 ft 6 kts 238°
2026-05-07 08:48 43.45181 39.95543 94 ft 13 kts 235°
2026-05-07 08:49 43.45122 39.95426 91 ft 17 kts 237°
2026-05-07 08:49 43.45061 39.95262 89 ft 19 kts 245°
2026-05-07 08:49 43.45015 39.95130 85 ft 12 kts 244°
2026-05-07 08:49 43.44958 39.95022 80 ft 17 kts 243°
2026-05-07 08:50 43.44901 39.94856 69 ft 22 kts 244°
2026-05-07 08:50 43.44843 39.94687 71 ft 20 kts 244°
2026-05-07 08:50 43.44796 39.94549 68 ft 14 kts 244°
2026-05-07 08:50 43.44750 39.94412 65 ft 9 kts 244°
2026-05-07 08:51 43.44741 39.94383 73 ft 2 kts 254°
2026-05-07 08:51 43.44741 39.94368 69 ft 4 kts 271°
2026-05-07 08:51 43.44768 39.94328 75 ft 6 kts 333°
2026-05-07 08:51 43.44785 39.94316 72 ft 1 kts 334°
2026-05-07 08:52 43.44792 39.94312 68 ft 1 kts 334°
2026-05-07 08:52 43.44793 39.94311 75 ft 0 kts 334°